AAY312 KLAX-KBLI

Flight info

Callsign AAY312
Flight time N/A
Altitude 36000
Route SUMMR2 RIZIN FLW CSTRO SHIMR LKV
Aircraft MD83/M-SDFGIRWY/S

Departure

Time N/A
Airport Los Angeles International Airport (KLAX)

Arrival

Time 2026-04-27 05:05
Airport Bellingham International Airport (KBLI)
Time Latitude Longitude Altitude Speed Heading
2026-04-27 04:31 46.41369 -121.90971 35935 ft 423 kts 346°
2026-04-27 04:32 46.47085 -121.93162 35929 ft 423 kts 346°
2026-04-27 04:32 46.52778 -121.95351 35937 ft 423 kts 346°
2026-04-27 04:33 46.58468 -121.97542 35928 ft 423 kts 346°
2026-04-27 04:33 46.64163 -121.99730 35942 ft 424 kts 346°
2026-04-27 04:34 46.69856 -122.01954 35937 ft 423 kts 346°
2026-04-27 04:34 46.75527 -122.04171 35940 ft 421 kts 346°
2026-04-27 04:35 46.81193 -122.06376 35934 ft 422 kts 346°
2026-04-27 04:35 46.86866 -122.08585 35946 ft 422 kts 346°
2026-04-27 04:36 46.92510 -122.10788 35943 ft 422 kts 346°
2026-04-27 04:36 46.98191 -122.13015 35946 ft 422 kts 346°
2026-04-27 04:37 47.02728 -122.14800 35744 ft 427 kts 346°
2026-04-27 04:37 47.05623 -122.15939 35111 ft 433 kts 346°
2026-04-27 04:37 47.08521 -122.17081 34409 ft 429 kts 346°
2026-04-27 04:38 47.11391 -122.18214 33658 ft 425 kts 346°
2026-04-27 04:38 47.14236 -122.19335 32891 ft 421 kts 346°
2026-04-27 04:38 47.17058 -122.20446 32153 ft 420 kts 346°
2026-04-27 04:38 47.18929 -122.21184 31681 ft 421 kts 346°
2026-04-27 04:39 47.21770 -122.22303 31022 ft 423 kts 346°
2026-04-27 04:39 47.24618 -122.23427 30381 ft 425 kts 346°
2026-04-27 04:39 47.27484 -122.24562 29700 ft 428 kts 346°
2026-04-27 04:39 47.30370 -122.25707 28957 ft 431 kts 346°
2026-04-27 04:40 47.33280 -122.26865 28245 ft 435 kts 346°
2026-04-27 04:40 47.36212 -122.28033 27551 ft 438 kts 346°
2026-04-27 04:40 47.39167 -122.29211 26869 ft 441 kts 346°
2026-04-27 04:40 47.42142 -122.30394 26208 ft 443 kts 347°
2026-04-27 04:41 47.45194 -122.31011 25559 ft 445 kts 359°
2026-04-27 04:41 47.48300 -122.30911 24933 ft 447 kts
2026-04-27 04:41 47.51366 -122.30647 24280 ft 425 kts
2026-04-27 04:41 47.54225 -122.30379 23670 ft 404 kts
2026-04-27 04:42 47.57004 -122.30126 22980 ft 397 kts
2026-04-27 04:42 47.59738 -122.29894 22273 ft 390 kts
2026-04-27 04:42 47.62427 -122.29689 21587 ft 384 kts
2026-04-27 04:42 47.65082 -122.29509 20906 ft 379 kts
2026-04-27 04:43 47.67700 -122.29345 20254 ft 374 kts
2026-04-27 04:43 47.70284 -122.29187 19697 ft 368 kts
2026-04-27 04:43 47.72819 -122.29034 19275 ft 362 kts
2026-04-27 04:43 47.75331 -122.28881 18872 ft 360 kts
2026-04-27 04:44 47.77825 -122.28729 18469 ft 358 kts
2026-04-27 04:44 47.80313 -122.28576 18048 ft 357 kts
2026-04-27 04:44 47.82797 -122.28420 17591 ft 356 kts
2026-04-27 04:44 47.85269 -122.28261 17127 ft 354 kts
2026-04-27 04:45 47.87728 -122.28104 16683 ft 353 kts
2026-04-27 04:45 47.90172 -122.27948 16319 ft 350 kts
2026-04-27 04:45 47.92592 -122.27893 16167 ft 347 kts 356°
2026-04-27 04:45 47.94999 -122.28416 16106 ft 351 kts 351°
2026-04-27 04:46 47.97393 -122.29147 16070 ft 352 kts 350°
2026-04-27 04:46 47.99791 -122.29911 16052 ft 353 kts 349°
2026-04-27 04:46 48.02199 -122.30676 16039 ft 353 kts 350°
2026-04-27 04:46 48.04603 -122.31426 16031 ft 354 kts 350°
2026-04-27 04:47 48.07013 -122.32163 16018 ft 354 kts 350°
2026-04-27 04:47 48.09396 -122.32876 16017 ft 354 kts 351°
2026-04-27 04:47 48.11811 -122.33585 16020 ft 354 kts 351°
2026-04-27 04:47 48.14228 -122.34286 16023 ft 353 kts 351°
2026-04-27 04:48 48.16646 -122.34984 16026 ft 353 kts 351°
2026-04-27 04:48 48.19058 -122.35674 16027 ft 353 kts 351°
2026-04-27 04:48 48.21474 -122.36367 16024 ft 353 kts 351°
2026-04-27 04:48 48.23890 -122.37063 15719 ft 352 kts 351°
2026-04-27 04:49 48.26271 -122.37754 15203 ft 346 kts 351°
2026-04-27 04:49 48.28624 -122.38439 14618 ft 344 kts 351°
2026-04-27 04:49 48.30972 -122.39123 13989 ft 343 kts 351°
2026-04-27 04:49 48.33318 -122.39807 13310 ft 343 kts 351°
2026-04-27 04:50 48.35656 -122.40486 12618 ft 342 kts 351°
2026-04-27 04:50 48.37990 -122.41167 11939 ft 341 kts 351°
2026-04-27 04:50 48.40315 -122.41849 11277 ft 340 kts 351°
2026-04-27 04:50 48.42632 -122.42530 10625 ft 339 kts 351°
2026-04-27 04:51 48.44532 -122.43091 10100 ft 338 kts 351°
2026-04-27 04:51 48.46978 -122.43811 9388 ft 337 kts 351°
2026-04-27 04:51 48.49270 -122.44485 8707 ft 333 kts 351°
2026-04-27 04:51 48.51534 -122.45147 8022 ft 329 kts 350°
2026-04-27 04:52 48.53733 -122.45793 7493 ft 323 kts 350°
2026-04-27 04:52 48.55890 -122.46433 7242 ft 308 kts 350°
2026-04-27 04:52 48.57936 -122.47045 7116 ft 291 kts 350°
2026-04-27 04:52 48.59862 -122.47618 7056 ft 274 kts 350°
2026-04-27 04:53 48.61709 -122.48164 7036 ft 268 kts 350°
2026-04-27 04:53 48.63540 -122.48709 7000 ft 268 kts 348°
2026-04-27 04:53 48.65252 -122.49832 7007 ft 272 kts 327°
2026-04-27 04:53 48.66777 -122.51564 6856 ft 277 kts 323°
2026-04-27 04:54 48.68289 -122.53372 6561 ft 276 kts 323°
2026-04-27 04:54 48.69783 -122.55166 6264 ft 273 kts 323°
2026-04-27 04:54 48.71264 -122.56958 5949 ft 271 kts 322°
2026-04-27 04:54 48.72731 -122.58733 5638 ft 269 kts 322°
2026-04-27 04:55 48.74191 -122.60484 5329 ft 267 kts 322°
2026-04-27 04:55 48.75644 -122.62209 5138 ft 263 kts 323°
2026-04-27 04:55 48.77087 -122.63907 5065 ft 262 kts 322°
2026-04-27 04:55 48.78537 -122.65592 5037 ft 263 kts 326°
2026-04-27 04:56 48.80216 -122.66627 5039 ft 264 kts 354°
2026-04-27 04:56 48.82035 -122.66718 5029 ft 265 kts
2026-04-27 04:56 48.83897 -122.66674 4830 ft 272 kts
2026-04-27 04:56 48.85794 -122.66629 4386 ft 273 kts
2026-04-27 04:57 48.87689 -122.66572 3932 ft 268 kts
2026-04-27 04:57 48.89526 -122.66547 3503 ft 261 kts 359°
2026-04-27 04:57 48.91306 -122.66537 3224 ft 249 kts 359°
2026-04-27 04:57 48.92996 -122.66538 3100 ft 236 kts 358°
2026-04-27 04:58 48.94590 -122.66543 3028 ft 223 kts 358°
2026-04-27 04:58 48.96096 -122.66551 2997 ft 211 kts 358°
2026-04-27 04:58 48.97523 -122.66563 2998 ft 199 kts 358°
2026-04-27 04:58 48.98868 -122.66572 2988 ft 190 kts 358°
2026-04-27 04:59 49.00148 -122.66241 2960 ft 190 kts 31°
2026-04-27 04:59 49.00837 -122.64597 2983 ft 192 kts 87°
2026-04-27 04:59 49.00624 -122.62584 3046 ft 196 kts 104°
2026-04-27 04:59 49.00278 -122.60570 3014 ft 197 kts 113°
2026-04-27 05:00 48.99474 -122.58921 3016 ft 195 kts 136°
2026-04-27 05:00 48.98516 -122.57444 3014 ft 196 kts 135°
2026-04-27 05:00 48.97568 -122.55960 3005 ft 196 kts 135°
2026-04-27 05:00 48.96611 -122.54485 3002 ft 195 kts 139°
2026-04-27 05:01 48.95413 -122.53682 2993 ft 190 kts 184°
2026-04-27 05:01 48.94092 -122.53838 3006 ft 193 kts 183°
2026-04-27 05:01 48.92720 -122.53786 2764 ft 197 kts 181°
2026-04-27 05:01 48.91351 -122.53812 2434 ft 197 kts 182°
2026-04-27 05:02 48.89977 -122.53811 2117 ft 196 kts 181°
2026-04-27 05:02 48.88664 -122.53807 1846 ft 186 kts 181°
2026-04-27 05:02 48.86316 -122.53791 1485 ft 148 kts 180°
2026-04-27 05:03 48.85330 -122.53785 1227 ft 138 kts 180°
2026-04-27 05:03 48.84392 -122.53780 1032 ft 132 kts 180°
2026-04-27 05:03 48.83491 -122.53775 867 ft 129 kts 180°
2026-04-27 05:03 48.82596 -122.53770 692 ft 128 kts 180°
2026-04-27 05:04 48.81706 -122.53764 524 ft 127 kts 180°
2026-04-27 05:04 48.80820 -122.53757 350 ft 128 kts 180°
2026-04-27 05:04 48.79939 -122.53754 182 ft 122 kts 180°
2026-04-27 05:04 48.79227 -122.53753 177 ft 73 kts 180°
2026-04-27 05:05 48.79029 -122.53721 178 ft 9 kts 118°
2026-04-27 05:05 48.79042 -122.53668 178 ft 7 kts 40°
2026-04-27 05:05 48.79096 -122.53606 176 ft 12 kts 35°
2026-04-27 05:05 48.79216 -122.53582 173 ft 20 kts 359°
2026-04-27 05:06 48.79351 -122.53580 171 ft 14 kts 15°
2026-04-27 05:06 48.79417 -122.53511 170 ft 9 kts 39°
2026-04-27 05:06 48.79453 -122.53470 169 ft 0 kts 40°
2026-04-27 05:06 48.79463 -122.53451 169 ft 5 kts 58°
2026-04-27 05:07 48.79467 -122.53439 168 ft 0 kts 61°
2026-04-27 05:07 48.79482 -122.53402 167 ft 5 kts 52°
2026-04-27 05:08 48.79498 -122.53371 166 ft 0 kts 52°
2026-04-27 05:08 48.79500 -122.53367 165 ft 0 kts 52°